{"data":{"norad_id":65886,"intl_designator":"2025-224E","name":"STARLINK-35413","alt_names":[],"object_type":"PAYLOAD","status":"ACTIVE","operator":null,"country":"US","launch_date":"2025-10-07","launch_site_code":"AFETR","launch_vehicle":null,"mission":null,"orbit_class":"UNKNOWN","rcs_meters":null,"size_class":null,"mass_kg":null,"dimensions":null,"purposes":["comms"],"wikipedia_slug":null,"has_3d_model":false,"image_url":null,"decayed_at":null,"tle_current":{"epoch":"2026-05-25T01:33:35.279424Z","epoch_age_seconds":79990,"freshness":"FRESH","line1":"1 65886U 25224E   26145.06499166  .00024681  00000+0  73913-3 0  9993","line2":"2 65886  53.1593  15.4644 0000966  84.9512 275.1601 15.34403273 36480","mean_motion":15.34403273,"eccentricity":9.66e-5,"inclination_deg":53.1593,"raan_deg":15.4644,"arg_perigee_deg":84.9512,"mean_anomaly_deg":275.1601,"bstar":0.00073913,"rev_number":3648,"period_min":93.847557896861,"perigee_km":462.03268795117,"apogee_km":463.35433640612,"semimajor_km":6840.8305121786,"source":"CELESTRAK","updated_at":"2026-05-25T13:38:20.979367Z"}}}